[[{"header":{"parameterUnit":"m.s-1","parameterCategory":1,"la1":30.2992,"la2":30.254,"lo1":-89.0895,"lo2":-89.0443,"dy":0.0025,"dx":0.0025,"nx":19,"ny":19,"refTime":"2026-04-22T03:00:00:Z","depth":0,"parameterNumber":2,"parameterNumberName":"U-component_of_WINDS"},"data":[0,0,0,-4.911,-4.9112,-4.9186,-4.9186,-4.9298,-4.9299,0,0,0,0,0,0,0,0,0,0,0,-4.91,-4.9101,-4.911,-4.9112,-4.9186,-4.9186,-4.9298,-4.9299,0,0,0,0,0,0,0,0,0,0,0,-4.91,-4.9101,-4.9103,-4.9112,-4.9186,-4.9186,-4.9298,-4.9235,0,0,0,0,0,0,0,0,0,0,-4.916,-4.9164,-4.9101,-4.9103,-4.9113,-4.9186,-4.9186,-4.9232,-4.9239,-4.9273,0,-4.9308,0,-4.9306,-4.9308,-4.9309,0,0,0,-4.9102,-4.9158,-4.9167,-4.9103,-4.9114,-4.9186,-4.915,-4.9236,-4.9244,-4.9283,-4.9309,-4.9313,-4.9308,-4.9309,-4.931,-4.9541,-4.9543,0,0,-4.9098,-4.912,-4.9161,-4.9173,-4.9164,-4.9147,-4.9152,-4.924,-4.927,-4.9309,-4.9315,-4.9309,-4.931,-4.9311,-4.954,-4.9542,0,0,0,-4.9093,-4.9117,-4.9124,-4.9169,-4.9181,-4.915,-4.9155,-4.9266,-4.9266,-4.9316,-4.9311,-4.9311,-4.9312,-4.9538,-4.954,-4.9637,0,0,0,-4.909,-4.9114,-4.9122,-4.9136,-4.918,-4.9225,-4.9179,-4.926,-4.9269,-4.931,-4.9311,-4.9314,-4.9536,-4.9539,-4.963,-4.9678,0,0,0,-4.9091,-4.9114,-4.9129,-4.9137,-4.917,-4.9223,-4.9228,-4.9262,-4.9267,-4.9309,-4.9314,-4.9535,-4.9539,-4.9625,-4.9668,-4.9744,0,0,0,-4.9098,-4.9213,-4.9131,-4.9258,-4.917,-4.9283,-4.9227,-4.931,-4.9358,-4.9311,-4.9536,-4.954,-4.9623,-4.9663,-4.9738,-4.981,-4.9843,0,0,-4.9255,-4.9233,-4.9306,-4.9235,-4.9368,-4.927,-4.9417,-4.944,-4.9423,-4.9502,-4.9508,-4.9632,-4.9668,-4.9743,-5.0023,-5.0049,0,0,0,-4.9363,-4.9415,-4.9446,-4.9494,-4.9515,-4.9537,-4.9535,-4.9543,-4.961,-4.9469,-4.9681,-4.9701,-4.9744,-4.9777,-4.98,-4.9834,-4.9557,-4.9557,-4.9556,-4.9614,-4.9589,-4.9708,-4.9692,-4.9739,-4.9737,-4.9772,-4.9782,-4.9742,-4.9793,-4.9815,-4.9988,-5.0028,-5.0044,-5.0081,-4.9853,-4.9853,-4.9854,-4.9854,-4.984,-4.991,-4.9856,-4.9952,-4.9924,-5.0004,-5.0007,-4.9976,-5.0045,-4.9969,-5.0005,-4.9922,-5.0074,-5.0105,-4.9861,-4.986,-4.9859,-4.9858,-4.9858,-5.0,-5.0029,-5.0039,-5.0106,-5.016,-5.014,-5.021,-5.0182,-5.0156,-5.0193,-5.0213,-5.0211,-5.0204,-5.0205,-5.0206,-5.0206,-5.0207,-5.0207,-5.0207,-5.0161,-5.0169,-5.0232,-5.0266,-5.0293,-5.0326,-5.0327,-5.0352,-5.0373,-5.0347,-5.0347,-5.0301,-5.0095,-5.0042,-5.0217,-5.0215,-5.0214,-5.0213,-5.0212,-5.0396,-5.0339,-5.0435,-5.0463,-5.0501,-5.0556,-5.0522,-5.0577,-5.0594,-5.0629,-5.0576,-5.0429,-5.0403,-5.0385,-5.0341,-5.0582,-5.0582,-5.0582,-5.0582,-5.0529,-5.0515,-5.0607,-5.0653,-5.0695,-5.0674,-5.0783,-5.0786,-5.0778,-5.0787,-5.0749,-5.0689,-5.0673,-5.0657,-5.0633,-5.0591,-5.0891,-5.0891,-5.0891,-5.0671,-5.066,-5.0758,-5.0752,-5.0781,-5.0805,-5.0906,-5.096,-5.094,-5.0903,-5.0793,-5.078,-5.0684,-5.0654,-5.0611,-5.0575,-5.0498,0,0]},{"header":{"parameterUnit":"m.s-1","parameterCategory":1,"la1":30.2992,"la2":30.254,"lo1":-89.0895,"lo2":-89.0443,"dy":0.0025,"dx":0.0025,"nx":19,"ny":19,"refTime":"2026-04-22T03:00:00:Z","depth":0,"parameterNumber":3,"parameterNumberName":"V-component_of_WINDS"},"data":[0,0,0,3.3212,3.3211,3.3185,3.3185,3.3158,3.3158,0,0,0,0,0,0,0,0,0,0,0,3.3225,3.3225,3.3212,3.3211,3.3185,3.3185,3.3158,3.3158,0,0,0,0,0,0,0,0,0,0,0,3.3225,3.3225,3.3225,3.3211,3.3185,3.3185,3.3158,3.3175,0,0,0,0,0,0,0,0,0,0,3.3199,3.3217,3.3225,3.3225,3.3211,3.3185,3.3185,3.3176,3.3174,3.3173,0,3.3176,0,3.3167,3.3157,3.3157,0,0,0,3.3206,3.3219,3.3207,3.3225,3.3211,3.3185,3.3196,3.3175,3.3173,3.3171,3.3175,3.3174,3.3166,3.3157,3.3157,3.3173,3.3174,0,0,3.3208,3.3223,3.3209,3.3206,3.3212,3.3196,3.3195,3.3174,3.3178,3.3175,3.3173,3.3166,3.3157,3.3157,3.3173,3.3173,0,0,0,3.3215,3.3224,3.3212,3.3207,3.3202,3.3196,3.3194,3.3179,3.3174,3.3173,3.3166,3.3157,3.3156,3.3173,3.3173,3.3203,0,0,0,3.3216,3.3228,3.3213,3.3222,3.3203,3.3191,3.32,3.3176,3.3173,3.3166,3.3157,3.3156,3.3172,3.3173,3.3201,3.3214,0,0,0,3.3225,3.3229,3.3228,3.3223,3.3213,3.3191,3.3185,3.3175,3.3169,3.3157,3.3156,3.3172,3.3173,3.32,3.3212,3.3223,0,0,0,3.3238,3.3253,3.3228,3.3242,3.3213,3.321,3.3184,3.3181,3.3175,3.3156,3.3172,3.3173,3.32,3.321,3.3222,3.3235,3.3243,0,0,3.3265,3.3257,3.3264,3.3241,3.3247,3.3213,3.3223,3.3201,3.3186,3.3178,3.3178,3.3202,3.3212,3.3223,3.3279,3.3285,0,0,0,3.3278,3.3283,3.3281,3.3277,3.3263,3.3252,3.3228,3.3221,3.3214,3.3185,3.3209,3.3214,3.322,3.3226,3.3231,3.3235,3.3176,3.3176,3.3176,3.3336,3.3318,3.3329,3.3307,3.3303,3.328,3.3275,3.326,3.324,3.3247,3.3244,3.328,3.3288,3.3291,3.3296,3.325,3.325,3.325,3.325,3.3375,3.3379,3.3356,3.3358,3.3337,3.3338,3.3317,3.3303,3.33,3.328,3.3284,3.3264,3.3298,3.3301,3.3252,3.3252,3.3252,3.3251,3.3251,3.3411,3.341,3.3402,3.3395,3.3391,3.3368,3.3368,3.3349,3.3331,3.3335,3.333,3.333,3.3327,3.3335,3.3335,3.3335,3.3335,3.3335,3.3335,3.3451,3.3441,3.3444,3.3432,3.3427,3.3419,3.3397,3.3391,3.338,3.3366,3.3366,3.3346,3.3306,3.3296,3.3337,3.3337,3.3336,3.3336,3.3336,3.3495,3.3483,3.3487,3.3483,3.3467,3.3465,3.3442,3.3433,3.3426,3.3426,3.3406,3.3379,3.3368,3.3364,3.3356,3.341,3.341,3.341,3.341,3.3525,3.3519,3.352,3.3514,3.3507,3.3487,3.3491,3.3475,3.3455,3.3449,3.3439,3.3426,3.3423,3.3414,3.3409,3.3401,3.3465,3.3465,3.3465,3.3552,3.3544,3.3552,3.3535,3.3522,3.3511,3.3514,3.3508,3.3483,3.3467,3.3444,3.3442,3.3422,3.3416,3.3398,3.339,3.3375,0,0]}]]